����,���ϕ���(m/s),���ϕ���,�ő�u�ԕ���(m/s),�ő啗��������,�C��(��),���x(%),10���Ԉړ��ώZ�J��(mm),1���Ԉړ��ώZ�J��(mm),���J��(mm),�݌v�J��(mm),����(���ώZ)(MJ/m2),����(���ώZ)(min),���n�C��(hPa),�C�ʋC��(hPa)
2023-08-07T00:00:00+09:00,0.6,��,1.3,��,28.2,79.7,0,0,0,0,21.27,552,988.9,1002
2023-08-07T00:01:00+09:00,0.7,��,1.7,��,28.3,80.3,0,0,0,0,0,0,988.8,1001.9
2023-08-07T00:02:00+09:00,0.7,��,1.7,��,28.2,80.6,0,0,0,0,0,0,988.9,1002
2023-08-07T00:03:00+09:00,0.8,��,1.7,��,28.1,80.8,0,0,0,0,0,0,988.9,1002
2023-08-07T00:04:00+09:00,0.9,��,2,���k��,27.9,81,0,0,0,0,0,0,988.9,1002
2023-08-07T00:05:00+09:00,0.9,��,2,���k��,27.9,81.6,0,0,0,0,0,0,988.9,1002
2023-08-07T00:06:00+09:00,0.9,��,2,���k��,27.7,81.4,0,0,0,0,0,0,988.9,1002
2023-08-07T00:07:00+09:00,0.9,��,2,���k��,27.8,82,0,0,0,0,0,0,988.9,1002
2023-08-07T00:08:00+09:00,0.9,��,2,���k��,27.8,82.5,0,0,0,0,0,0,988.8,1001.9
2023-08-07T00:09:00+09:00,0.9,��,2,���k��,27.9,82.6,0,0,0,0,0,0,988.8,1001.9
2023-08-07T00:10:00+09:00,1,��,2,���k��,28.1,82.8,0,0,0,0,0,0,988.8,1001.9
2023-08-07T00:11:00+09:00,0.9,��,2,���k��,28.2,82.3,0,0,0,0,0,0,988.8,1001.9
2023-08-07T00:12:00+09:00,0.8,��,2,���k��,28.2,81.9,0,0,0,0,0,0,988.8,1001.9
2023-08-07T00:13:00+09:00,0.8,��,2,���k��,28.2,81.8,0,0,0,0,0,0,988.8,1001.9
2023-08-07T00:14:00+09:00,0.8,��,1.4,��,28.3,81.8,0,0,0,0,0,0,988.7,1001.8
2023-08-07T00:15:00+09:00,0.8,��,1.4,��,28.5,81.7,0,0,0,0,0,0,988.7,1001.7
2023-08-07T00:16:00+09:00,0.8,��,1.4,��,28.4,81.1,0,0,0,0,0,0,988.7,1001.8
2023-08-07T00:17:00+09:00,0.8,��,1.4,��,28.6,81,0,0,0,0,0,0,988.8,1001.8
2023-08-07T00:18:00+09:00,0.8,��,1.7,��,28.6,80.6,0,0,0,0,0,0,988.7,1001.7
2023-08-07T00:19:00+09:00,0.9,��,1.7,��,28.5,80.1,0,0,0,0,0,0,988.7,1001.7
2023-08-07T00:20:00+09:00,1,��,1.7,��,28.4,79.7,0,0,0,0,0,0,988.7,1001.8
2023-08-07T00:21:00+09:00,1,��,1.7,��,28.5,79.8,0,0,0,0,0,0,988.7,1001.7
2023-08-07T00:22:00+09:00,1.1,��,1.7,��,28.4,79.6,0,0,0,0,0,0,988.7,1001.8
2023-08-07T00:23:00+09:00,1.2,��,1.8,���k��,28.4,79.9,0,0,0,0,0,0,988.7,1001.8
2023-08-07T00:24:00+09:00,1.3,��,2,��,28.5,80.2,0,0,0,0,0,0,988.7,1001.7
2023-08-07T00:25:00+09:00,1.4,��,2.4,��,28.1,80,0,0,0,0,0,0,988.7,1001.8
2023-08-07T00:26:00+09:00,1.5,��,2.4,��,27.6,80.2,0,0,0,0,0,0,988.7,1001.8
2023-08-07T00:27:00+09:00,1.6,��,2.4,��,27.3,81.6,0,0,0,0,0,0,988.7,1001.8
2023-08-07T00:28:00+09:00,1.6,��,2.4,��,27.2,82.9,0,0,0,0,0,0,988.6,1001.7
2023-08-07T00:29:00+09:00,1.7,��,2.4,��,27.2,84.1,0,0,0,0,0,0,988.6,1001.7
2023-08-07T00:30:00+09:00,1.8,��,2.6,��,27,84.8,0,0,0,0,0,0,988.6,1001.7
2023-08-07T00:31:00+09:00,1.9,��,2.9,��,26.9,85.5,0,0,0,0,0,0,988.6,1001.7
2023-08-07T00:32:00+09:00,2,��,3,��,26.9,86.5,0,0,0,0,0,0,988.6,1001.7
2023-08-07T00:33:00+09:00,2,��,3,��,26.7,87.1,0,0,0,0,0,0,988.7,1001.8
2023-08-07T00:34:00+09:00,2.1,��,3.3,��,26.6,87.5,0,0,0,0,0,0,988.7,1001.8
2023-08-07T00:35:00+09:00,2.2,��,3.3,��,26.6,88.3,0,0,0,0,0,0,988.7,1001.8
2023-08-07T00:36:00+09:00,2.3,��,3.3,��,26.6,89,0,0,0,0,0,0,988.7,1001.8
2023-08-07T00:37:00+09:00,2.3,��,3.3,��,26.6,89.2,0,0,0,0,0,0,988.7,1001.8
2023-08-07T00:38:00+09:00,2.4,��,3.3,��,26.7,89.7,0,0,0,0,0,0,988.7,1001.8
2023-08-07T00:39:00+09:00,2.4,��,3.3,��,26.7,89.9,0,0,0,0,0,0,988.7,1001.8
2023-08-07T00:40:00+09:00,2.4,��,3.3,��,26.7,89.9,0,0,0,0,0,0,988.6,1001.7
2023-08-07T00:41:00+09:00,2.4,��,3.3,��,26.7,89.7,0,0,0,0,0,0,988.6,1001.7
2023-08-07T00:42:00+09:00,2.4,��,3.3,��,26.7,89.6,0,0,0,0,0,0,988.6,1001.7
2023-08-07T00:43:00+09:00,2.4,��,3.3,��,26.7,89.7,0,0,0,0,0,0,988.6,1001.7
2023-08-07T00:44:00+09:00,2.4,��,3.2,��,26.7,89.6,0,0,0,0,0,0,988.6,1001.7
2023-08-07T00:45:00+09:00,2.4,��,3.1,��,26.8,89.6,0,0,0,0,0,0,988.5,1001.6
2023-08-07T00:46:00+09:00,2.3,��,3.1,��,26.9,89.6,0,0,0,0,0,0,988.5,1001.6
2023-08-07T00:47:00+09:00,2.3,��,3.1,��,27.1,89.2,0,0,0,0,0,0,988.5,1001.6
2023-08-07T00:48:00+09:00,2.3,��,3.1,��,27,88.8,0,0,0,0,0,0,988.5,1001.6
2023-08-07T00:49:00+09:00,2.2,��,3,��,27,88.2,0,0,0,0,0,0,988.5,1001.6
2023-08-07T00:50:00+09:00,2.1,��,3,��,27,87.9,0,0,0,0,0,0,988.6,1001.7
2023-08-07T00:51:00+09:00,2,��,3,��,27.2,88.2,0,0,0,0,0,0,988.6,1001.7
2023-08-07T00:52:00+09:00,1.8,��,3,��,27.5,88,0,0,0,0,0,0,988.6,1001.7
2023-08-07T00:53:00+09:00,1.6,��,3,��,27.7,87.3,0,0,0,0,0,0,988.6,1001.7
2023-08-07T00:54:00+09:00,1.4,��,3,��,27.5,86,0,0,0,0,0,0,988.6,1001.7
2023-08-07T00:55:00+09:00,1.2,��,2.7,��,27.5,85.8,0,0,0,0,0,0,988.6,1001.7
2023-08-07T00:56:00+09:00,1.1,��,2.3,��,27.6,85.8,0,0,0,0,0,0,988.6,1001.7
2023-08-07T00:57:00+09:00,1,��,2.3,��,27.7,85.7,0,0,0,0,0,0,988.6,1001.7
2023-08-07T00:58:00+09:00,0.8,��,2.3,��,27.8,85.3,0,0,0,0,0,0,988.6,1001.7
2023-08-07T00:59:00+09:00,0.9,��,2.3,��,27.3,83.9,0,0,0,0,0,0,988.6,1001.7
2023-08-07T01:00:00+09:00,0.9,��,2.4,��,27.2,83.9,0,0,0,0,0,0,988.6,1001.7
2023-08-07T01:01:00+09:00,0.9,��,2.4,��,27.1,84.7,0,0,0,0,0,0,988.6,1001.7
2023-08-07T01:02:00+09:00,1,��,2.4,��,27.4,85.6,0,0,0,0,0,0,988.6,1001.7
2023-08-07T01:03:00+09:00,1.1,��,2.4,��,27.3,85.5,0,0,0,0,0,0,988.6,1001.7
2023-08-07T01:04:00+09:00,1.2,��,2.4,��,27,84.9,0,0,0,0,0,0,988.6,1001.7
2023-08-07T01:05:00+09:00,1.3,��,2.4,��,26.9,85.4,0,0,0,0,0,0,988.6,1001.7
2023-08-07T01:06:00+09:00,1.2,���쐼,2.4,��,26.8,86.2,0,0,0,0,0,0,988.6,1001.7
2023-08-07T01:07:00+09:00,1.1,���쐼,2.4,��,27.3,87.4,0,0,0,0,0,0,988.6,1001.7
2023-08-07T01:08:00+09:00,1.1,���쐼,2.4,��,27.5,87.6,0,0,0,0,0,0,988.6,1001.7
2023-08-07T01:09:00+09:00,1,���쐼,2.4,��,27.5,87,0,0,0,0,0,0,988.5,1001.6
2023-08-07T01:10:00+09:00,0.9,���쐼,2,���k��,27.7,86.5,0,0,0,0,0,0,988.5,1001.6
2023-08-07T01:11:00+09:00,0.8,��,2,���k��,27.8,85.9,0,0,0,0,0,0,988.5,1001.6
2023-08-07T01:12:00+09:00,0.7,��,1.6,���쐼,27.9,85.1,0,0,0,0,0,0,988.6,1001.7
2023-08-07T01:13:00+09:00,0.7,��,1.5,��,27.7,84.6,0,0,0,0,0,0,988.6,1001.7
2023-08-07T01:14:00+09:00,0.6,��,1.5,��,27.3,83.8,0,0,0,0,0,0,988.6,1001.7
2023-08-07T01:15:00+09:00,0.6,��,1.5,��,27.2,84.1,0,0,0,0,0,0,988.6,1001.7
2023-08-07T01:16:00+09:00,0.5,��,1.5,��,26.9,84.8,0,0,0,0,0,0,988.5,1001.6
2023-08-07T01:17:00+09:00,0.5,��,1.5,��,26.8,85.5,0,0,0,0,0,0,988.5,1001.6
2023-08-07T01:18:00+09:00,0.6,��,2.3,��,26.8,86.2,0,0,0,0,0,0,988.5,1001.6
2023-08-07T01:19:00+09:00,0.7,��,2.3,��,26.8,86.6,0,0,0,0,0,0,988.5,1001.6
2023-08-07T01:20:00+09:00,0.8,���쐼,2.3,��,26.7,86.6,0,0,0,0,0,0,988.5,1001.6
2023-08-07T01:21:00+09:00,0.8,���쐼,2.3,��,26.6,86.9,0,0,0,0,0,0,988.5,1001.6
2023-08-07T01:22:00+09:00,0.9,���쐼,2.3,��,26.6,87.5,0,0,0,0,0,0,988.5,1001.6
2023-08-07T01:23:00+09:00,0.9,���쐼,2.3,��,26.6,88.2,0,0,0,0,0,0,988.5,1001.6
2023-08-07T01:24:00+09:00,0.9,���쐼,2.3,��,26.6,88.3,0,0,0,0,0,0,988.5,1001.6
2023-08-07T01:25:00+09:00,1,���쐼,2.3,��,26.7,88.5,0,0,0,0,0,0,988.5,1001.6
2023-08-07T01:26:00+09:00,1,���쐼,2.3,��,26.7,88.5,0,0,0,0,0,0,988.5,1001.6
2023-08-07T01:27:00+09:00,1.1,���쐼,2.3,��,27.1,89,0,0,0,0,0,0,988.5,1001.6
2023-08-07T01:28:00+09:00,1.1,���쐼,2.2,���쐼,27.2,88.6,0,0,0,0,0,0,988.5,1001.6
2023-08-07T01:29:00+09:00,1,���쐼,2.2,���쐼,27,87.4,0,0,0,0,0,0,988.6,1001.7
2023-08-07T01:30:00+09:00,0.9,���쐼,2,���쐼,27,87.1,0,0,0,0,0,0,988.6,1001.7
2023-08-07T01:31:00+09:00,0.8,���쐼,2,���쐼,26.9,86.8,0,0,0,0,0,0,988.6,1001.7
2023-08-07T01:32:00+09:00,0.8,���쐼,1.8,���쐼,27,87,0,0,0,0,0,0,988.6,1001.7
2023-08-07T01:33:00+09:00,0.8,���쐼,1.8,���쐼,27,87,0,0,0,0,0,0,988.6,1001.7
2023-08-07T01:34:00+09:00,0.8,��,1.8,���쐼,26.7,86.7,0,0,0,0,0,0,988.6,1001.7
2023-08-07T01:35:00+09:00,0.9,��,2.3,���쐼,26.5,87,0,0,0,0,0,0,988.6,1001.7
2023-08-07T01:36:00+09:00,1,��,2.6,��,26.5,87.7,0,0,0,0,0,0,988.6,1001.7
2023-08-07T01:37:00+09:00,1.1,��,3.1,��,26.4,88.3,0,0,0,0,0,0,988.6,1001.7
2023-08-07T01:38:00+09:00,1.3,��,3.2,��,26.3,88.6,0,0,0,0,0,0,988.6,1001.7
2023-08-07T01:39:00+09:00,1.5,��,3.2,��,26.2,89,0,0,0,0,0,0,988.6,1001.7
2023-08-07T01:40:00+09:00,1.7,��,3.3,��,26.2,89.7,0,0,0,0,0,0,988.6,1001.7
2023-08-07T01:41:00+09:00,1.9,��,3.3,��,26.2,89.9,0,0,0,0,0,0,988.6,1001.7
2023-08-07T01:42:00+09:00,1.9,��,3.3,��,26.2,90.2,0,0,0,0,0,0,988.5,1001.6
2023-08-07T01:43:00+09:00,2,��,3.3,��,26.2,90.7,0,0,0,0,0,0,988.5,1001.6
2023-08-07T01:44:00+09:00,2,��,3.3,��,26.2,90.9,0,0,0,0,0,0,988.5,1001.6
2023-08-07T01:45:00+09:00,2.1,��,3.3,��,26.1,91.1,0,0,0,0,0,0,988.5,1001.7
2023-08-07T01:46:00+09:00,2.1,��,3.3,��,26.1,91.1,0,0,0,0,0,0,988.5,1001.7
2023-08-07T01:47:00+09:00,1.9,��,3.3,��,26.2,91.3,0,0,0,0,0,0,988.5,1001.6
2023-08-07T01:48:00+09:00,1.9,��,3.3,��,26.3,91.7,0,0,0,0,0,0,988.4,1001.5
2023-08-07T01:49:00+09:00,1.8,���쐼,3.3,��,26.7,92.1,0,0,0,0,0,0,988.4,1001.5
2023-08-07T01:50:00+09:00,1.6,��,3.1,���쐼,26.6,91.2,0,0,0,0,0,0,988.4,1001.5
2023-08-07T01:51:00+09:00,1.5,���쐼,3,���쐼,26.6,90.3,0,0,0,0,0,0,988.4,1001.5
2023-08-07T01:52:00+09:00,1.4,���쐼,2.7,���쐼,26.7,89.7,0,0,0,0,0,0,988.4,1001.5
2023-08-07T01:53:00+09:00,1.2,���쐼,2.4,��,26.9,89.7,0,0,0,0,0,0,988.4,1001.5
2023-08-07T01:54:00+09:00,1.1,���쐼,2.3,���쐼,26.9,89,0,0,0,0,0,0,988.4,1001.5
2023-08-07T01:55:00+09:00,0.9,���쐼,2.3,���쐼,27,88.3,0,0,0,0,0,0,988.4,1001.5
2023-08-07T01:56:00+09:00,0.8,��,2.1,��,27.1,87.8,0,0,0,0,0,0,988.4,1001.5
2023-08-07T01:57:00+09:00,0.8,��,2.1,��,27.1,87.4,0,0,0,0,0,0,988.4,1001.5
2023-08-07T01:58:00+09:00,0.6,��,1.9,��,26.9,86.7,0,0,0,0,0,0,988.3,1001.4
2023-08-07T01:59:00+09:00,0.5,���쐼,1.5,��,26.8,86.8,0,0,0,0,0,0,988.4,1001.5
2023-08-07T02:00:00+09:00,0.5,���쐼,1.2,���k��,26.9,86.9,0,0,0,0,0,0,988.3,1001.4
2023-08-07T02:01:00+09:00,0.5,��,1.2,���k��,27.2,87.6,0,0,0,0,0,0,988.3,1001.4
2023-08-07T02:02:00+09:00,0.4,��,1.2,���k��,27,86.8,0,0,0,0,0,0,988.4,1001.5
2023-08-07T02:03:00+09:00,0.5,��,1.6,��쐼,26.6,85.7,0,0,0,0,0,0,988.4,1001.5
2023-08-07T02:04:00+09:00,0.5,��,1.6,��쐼,26.5,85.8,0,0,0,0,0,0,988.4,1001.5
2023-08-07T02:05:00+09:00,0.5,��,1.6,��쐼,27,87.4,0,0,0,0,0,0,988.4,1001.5
2023-08-07T02:06:00+09:00,0.5,��,1.6,��쐼,27.2,87.6,0,0,0,0,0,0,988.4,1001.5
2023-08-07T02:07:00+09:00,0.5,��,1.6,��쐼,27.3,86.7,0,0,0,0,0,0,988.4,1001.5
2023-08-07T02:08:00+09:00,0.5,��,1.6,��쐼,27.3,86.1,0,0,0,0,0,0,988.4,1001.5
2023-08-07T02:09:00+09:00,0.6,��,1.6,��쐼,27.3,85.7,0,0,0,0,0,0,988.4,1001.5
2023-08-07T02:10:00+09:00,0.6,��,1.6,��쐼,27.2,85.5,0,0,0,0,0,0,988.4,1001.5
2023-08-07T02:11:00+09:00,0.6,��,1.8,���k��,27.2,85.4,0,0,0,0,0,0,988.4,1001.5
2023-08-07T02:12:00+09:00,0.7,��,2.1,��,27.2,85.6,0,0,0,0,0,0,988.4,1001.5
2023-08-07T02:13:00+09:00,0.8,��,2.1,��,27,85.1,0,0,0,0,0,0,988.4,1001.5
2023-08-07T02:14:00+09:00,0.9,��,2.1,��,26.8,85.3,0,0,0,0,0,0,988.4,1001.5
2023-08-07T02:15:00+09:00,1,��,2.1,��,26.6,85.3,0,0,0,0,0,0,988.4,1001.5
2023-08-07T02:16:00+09:00,1.1,��,2.1,��,26.5,86.3,0,0,0,0,0,0,988.4,1001.5
2023-08-07T02:17:00+09:00,1.1,��,2.1,��,26.4,87,0,0,0,0,0,0,988.4,1001.5
2023-08-07T02:18:00+09:00,1.2,��,2.1,��,26.2,87.5,0,0,0,0,0,0,988.4,1001.5
2023-08-07T02:19:00+09:00,1.2,��,2.1,��,26.4,88.8,0,0,0,0,0,0,988.4,1001.5
2023-08-07T02:20:00+09:00,1.3,��,2.1,��,26.4,89.2,0,0,0,0,0,0,988.4,1001.5
2023-08-07T02:21:00+09:00,1.3,��,2.1,��,26.3,89.6,0,0,0,0,0,0,988.5,1001.6
2023-08-07T02:22:00+09:00,1.3,��,1.9,���쐼,26.1,89.5,0,0,0,0,0,0,988.5,1001.7
2023-08-07T02:23:00+09:00,1.2,��,1.9,���쐼,26.1,89.7,0,0,0,0,0,0,988.5,1001.7
2023-08-07T02:24:00+09:00,1.2,��,1.9,���쐼,26,89.9,0,0,0,0,0,0,988.5,1001.7
2023-08-07T02:25:00+09:00,1.2,���쐼,2.1,��,26,90.4,0,0,0,0,0,0,988.5,1001.7
2023-08-07T02:26:00+09:00,1.3,���쐼,2.4,���쐼,26.1,90.7,0,0,0,0,0,0,988.6,1001.8
2023-08-07T02:27:00+09:00,1.3,���쐼,2.4,���쐼,26.1,91,0,0,0,0,0,0,988.5,1001.7
2023-08-07T02:28:00+09:00,1.4,���쐼,2.4,���쐼,26.2,91.2,0,0,0,0,0,0,988.6,1001.7
2023-08-07T02:29:00+09:00,1.4,��,2.4,���쐼,26.2,91.4,0,0,0,0,0,0,988.5,1001.6
2023-08-07T02:30:00+09:00,1.5,���쐼,2.4,���쐼,26,90.9,0,0,0,0,0,0,988.6,1001.8
2023-08-07T02:31:00+09:00,1.5,���쐼,2.4,���쐼,26.1,91.2,0,0,0,0,0,0,988.5,1001.7
2023-08-07T02:32:00+09:00,1.6,��,2.4,���쐼,26.2,91.2,0,0,0,0,0,0,988.6,1001.7
2023-08-07T02:33:00+09:00,1.7,��,2.4,���쐼,26.1,91,0,0,0,0,0,0,988.5,1001.7
2023-08-07T02:34:00+09:00,1.8,��,2.5,��,26,90.9,0,0,0,0,0,0,988.5,1001.7
2023-08-07T02:35:00+09:00,1.9,��,2.6,��,25.9,91.1,0,0,0,0,0,0,988.5,1001.7
2023-08-07T02:36:00+09:00,1.8,��,2.6,��,26,91.5,0,0,0,0,0,0,988.5,1001.7
2023-08-07T02:37:00+09:00,1.9,��,2.6,��,25.9,91.7,0,0,0,0,0,0,988.5,1001.7
2023-08-07T02:38:00+09:00,1.8,��,2.6,��,25.8,91.6,0,0,0,0,0,0,988.5,1001.7
2023-08-07T02:39:00+09:00,1.8,��,2.6,��,25.8,91.7,0,0,0,0,0,0,988.6,1001.8
2023-08-07T02:40:00+09:00,1.8,��,2.6,��,25.9,91.7,0,0,0,0,0,0,988.6,1001.8
2023-08-07T02:41:00+09:00,1.7,��,2.6,��,25.9,91.9,0,0,0,0,0,0,988.6,1001.8
2023-08-07T02:42:00+09:00,1.6,��,2.6,��,25.8,91.9,0,0,0,0,0,0,988.6,1001.8
2023-08-07T02:43:00+09:00,1.5,���쐼,2.6,��,25.9,92,0,0,0,0,0,0,988.6,1001.8
2023-08-07T02:44:00+09:00,1.5,���쐼,2.6,��,26,92.1,0,0,0,0,0,0,988.6,1001.8
2023-08-07T02:45:00+09:00,1.5,���쐼,2.6,��,25.9,91.8,0,0,0,0,0,0,988.6,1001.8
2023-08-07T02:46:00+09:00,1.4,���쐼,2.4,��,26,91.9,0,0,0,0,0,0,988.6,1001.8
2023-08-07T02:47:00+09:00,1.3,���쐼,2.4,��,26.1,92.1,0,0,0,0,0,0,988.6,1001.8
2023-08-07T02:48:00+09:00,1.3,���쐼,2.4,��,26.5,92.4,0,0,0,0,0,0,988.6,1001.7
2023-08-07T02:49:00+09:00,1.3,���쐼,2.4,��,26,91.2,0,0,0,0,0,0,988.6,1001.8
2023-08-07T02:50:00+09:00,1.3,���쐼,2.4,��,25.9,90.5,0,0,0,0,0,0,988.6,1001.8
2023-08-07T02:51:00+09:00,1.3,���쐼,2.4,��,25.9,90.8,0,0,0,0,0,0,988.6,1001.8
2023-08-07T02:52:00+09:00,1.3,���쐼,2.4,��,26.1,91,0,0,0,0,0,0,988.6,1001.8
2023-08-07T02:53:00+09:00,1.3,���쐼,2.4,��,26.4,91.5,0,0,0,0,0,0,988.6,1001.7
2023-08-07T02:54:00+09:00,1.2,���쐼,2.4,��,26.4,91.1,0,0,0,0,0,0,988.7,1001.8
2023-08-07T02:55:00+09:00,1.1,���쐼,2.1,��,26.3,90.3,0,0,0,0,0,0,988.7,1001.8
2023-08-07T02:56:00+09:00,1,���쐼,2.1,��,26.6,90.5,0,0,0,0,0,0,988.7,1001.8
2023-08-07T02:57:00+09:00,1,���쐼,2.1,��,26.8,90.3,0,0,0,0,0,0,988.7,1001.8
2023-08-07T02:58:00+09:00,0.9,���쐼,2.1,��,26.7,89,0,0,0,0,0,0,988.7,1001.8
2023-08-07T02:59:00+09:00,0.8,��,2.1,��,26.8,88.5,0,0,0,0,0,0,988.7,1001.8
2023-08-07T03:00:00+09:00,0.7,��,2.1,��,26.8,88.1,0,0,0,0,0,0,988.7,1001.8
2023-08-07T03:01:00+09:00,0.6,��,2.1,��,27,88.1,0,0,0,0,0,0,988.7,1001.8
2023-08-07T03:02:00+09:00,0.5,���k��,1.8,��,26.9,87.6,0,0,0,0,0,0,988.7,1001.8
2023-08-07T03:03:00+09:00,0.5,�k��,1.7,��,26.8,87.2,0,0,0,0,0,0,988.7,1001.8
2023-08-07T03:04:00+09:00,0.4,�k��,1.3,��,27,87.3,0,0,0,0,0,0,988.7,1001.8
2023-08-07T03:05:00+09:00,0.4,�k�k��,1.1,�k��,27.1,87.4,0,0,0,0,0,0,988.7,1001.8
2023-08-07T03:06:00+09:00,0.4,�k�k��,1.1,�k��,27.1,86.9,0,0,0,0,0,0,988.7,1001.8
2023-08-07T03:07:00+09:00,0.4,�k�k��,1.1,�k��,27.2,86.3,0,0,0,0,0,0,988.7,1001.8
2023-08-07T03:08:00+09:00,0.5,�k�k��,1.1,�k��,27.2,86,0,0,0,0,0,0,988.7,1001.8
2023-08-07T03:09:00+09:00,0.5,�k�k��,1.1,�k��,27.1,85.6,0,0,0,0,0,0,988.7,1001.8
2023-08-07T03:10:00+09:00,0.6,�k�k��,1.2,���k��,27.1,85.5,0,0,0,0,0,0,988.7,1001.8
2023-08-07T03:11:00+09:00,0.7,�k��,1.3,��,27.2,85.6,0,0,0,0,0,0,988.7,1001.8
2023-08-07T03:12:00+09:00,0.7,�k��,1.5,��,26.9,85.2,0,0,0,0,0,0,988.7,1001.8
2023-08-07T03:13:00+09:00,0.7,���k��,1.5,��,26.8,85.1,0,0,0,0,0,0,988.7,1001.8
2023-08-07T03:14:00+09:00,0.8,���k��,1.7,���쐼,26.8,85.8,0,0,0,0,0,0,988.7,1001.8
2023-08-07T03:15:00+09:00,0.9,���k��,1.7,���쐼,26.9,86.2,0,0,0,0,0,0,988.7,1001.8
2023-08-07T03:16:00+09:00,1,���k��,1.8,��,27,86.5,0,0,0,0,0,0,988.7,1001.8
2023-08-07T03:17:00+09:00,1.1,���k��,1.8,��,26.9,86.3,0,0,0,0,0,0,988.7,1001.8
2023-08-07T03:18:00+09:00,1.2,��,1.8,��,27,86.5,0,0,0,0,0,0,988.7,1001.8
2023-08-07T03:19:00+09:00,1.2,��,1.8,��,26.9,86.2,0,0,0,0,0,0,988.7,1001.8
2023-08-07T03:20:00+09:00,1.2,��,1.8,��,26.6,85.9,0,0,0,0,0,0,988.7,1001.8
2023-08-07T03:21:00+09:00,1.2,��,1.8,��,26.7,86.3,0,0,0,0,0,0,988.7,1001.8
2023-08-07T03:22:00+09:00,1.2,��,1.8,��,26.8,87.2,0,0,0,0,0,0,988.7,1001.8
2023-08-07T03:23:00+09:00,1.1,���k��,1.8,��,26.7,87,0,0,0,0,0,0,988.7,1001.8
2023-08-07T03:24:00+09:00,1.1,���k��,1.8,��,26.7,87.2,0,0,0,0,0,0,988.7,1001.8
2023-08-07T03:25:00+09:00,1,���k��,1.8,��,26.7,87.8,0,0,0,0,0,0,988.7,1001.8
2023-08-07T03:26:00+09:00,1,���k��,1.7,��,26.8,88.1,0,0,0,0,0,0,988.7,1001.8
2023-08-07T03:27:00+09:00,0.8,���k��,1.7,��,26.7,87.8,0,0,0,0,0,0,988.7,1001.8
2023-08-07T03:28:00+09:00,0.8,���k��,1.7,��,26.6,87.8,0,0,0,0,0,0,988.8,1001.9
2023-08-07T03:29:00+09:00,0.7,���k��,1.6,���k��,26.7,88.1,0,0,0,0,0,0,988.7,1001.8
2023-08-07T03:30:00+09:00,0.7,���k��,1.4,�k��,26.6,88.2,0,0,0,0,0,0,988.7,1001.8
2023-08-07T03:31:00+09:00,0.6,���k��,1.4,�k��,26.7,88.3,0,0,0,0,0,0,988.7,1001.8
2023-08-07T03:32:00+09:00,0.6,���k��,1.4,�k��,26.7,88.2,0,0,0,0,0,0,988.7,1001.8
2023-08-07T03:33:00+09:00,0.6,���k��,1.4,�k��,26.7,88.2,0,0,0,0,0,0,988.7,1001.8
2023-08-07T03:34:00+09:00,0.6,��,1.1,��,26.7,88.1,0,0,0,0,0,0,988.7,1001.8
2023-08-07T03:35:00+09:00,0.6,��,1.1,��,26.6,88.1,0,0,0,0,0,0,988.8,1001.9
2023-08-07T03:36:00+09:00,0.6,��,1.1,��,26.5,88.1,0,0,0,0,0,0,988.8,1001.9
2023-08-07T03:37:00+09:00,0.7,���k��,1.1,��,26.6,88.4,0,0,0,0,0,0,988.8,1001.9
2023-08-07T03:38:00+09:00,0.7,���k��,1.1,��,26.7,88.6,0,0,0,0,0,0,988.8,1001.9
2023-08-07T03:39:00+09:00,0.7,���k��,1.2,�k��,26.9,88.6,0,0,0,0,0,0,988.8,1001.9
2023-08-07T03:40:00+09:00,0.7,���k��,1.3,���k��,27,88.4,0,0,0,0,0,0,988.8,1001.9
2023-08-07T03:41:00+09:00,0.7,���k��,1.3,���k��,27.1,88,0,0,0,0,0,0,988.8,1001.9
2023-08-07T03:42:00+09:00,0.7,���k��,1.3,���k��,27.1,87.6,0,0,0,0,0,0,988.8,1001.9
2023-08-07T03:43:00+09:00,0.7,���k��,1.3,���k��,27,87.1,0,0,0,0,0,0,988.9,1002
2023-08-07T03:44:00+09:00,0.7,���k��,1.3,���k��,26.9,86.9,0,0,0,0,0,0,988.9,1002
2023-08-07T03:45:00+09:00,0.8,���k��,1.3,���k��,26.8,86.7,0,0,0,0,0,0,988.8,1001.9
2023-08-07T03:46:00+09:00,0.8,���k��,1.3,���k��,26.7,86.8,0,0,0,0,0,0,988.8,1001.9
2023-08-07T03:47:00+09:00,0.8,���k��,1.3,���k��,26.6,86.9,0,0,0,0,0,0,988.8,1001.9
2023-08-07T03:48:00+09:00,0.8,���k��,1.3,���k��,26.6,87.4,0,0,0,0,0,0,988.8,1001.9
2023-08-07T03:49:00+09:00,0.8,���k��,1.3,���k��,26.5,87.5,0,0,0,0,0,0,988.8,1001.9
2023-08-07T03:50:00+09:00,0.8,���k��,1.3,���쐼,26.6,88,0,0,0,0,0,0,988.8,1001.9
2023-08-07T03:51:00+09:00,0.8,���k��,1.3,���쐼,26.5,88,0,0,0,0,0,0,988.8,1001.9
2023-08-07T03:52:00+09:00,0.8,��,1.3,���쐼,26.5,88.2,0,0,0,0,0,0,988.8,1001.9
2023-08-07T03:53:00+09:00,0.8,��,1.3,���쐼,26.5,88.5,0,0,0,0,0,0,988.8,1001.9
2023-08-07T03:54:00+09:00,0.8,��,1.3,���쐼,26.6,88.8,0,0,0,0,0,0,988.8,1001.9
2023-08-07T03:55:00+09:00,0.8,��,1.3,���쐼,26.7,88.9,0,0,0,0,0,0,988.8,1001.9
2023-08-07T03:56:00+09:00,0.8,��,1.9,��,26.7,88.7,0,0,0,0,0,0,988.8,1001.9
2023-08-07T03:57:00+09:00,0.9,��,1.9,��,26.2,88.1,0,0,0,0,0,0,988.8,1002
2023-08-07T03:58:00+09:00,1,��,2.2,��,26,87.7,0,0,0,0,0,0,988.8,1002
2023-08-07T03:59:00+09:00,1.1,��,2.2,��,25.8,88.5,0,0,0,0,0,0,988.8,1002
2023-08-07T04:00:00+09:00,1.2,��,2.2,��,25.7,89.3,0,0,0,0,0,0,988.8,1002
2023-08-07T04:01:00+09:00,1.3,��,2.2,��,25.9,90.4,0,0,0,0,0,0,988.8,1002
2023-08-07T04:02:00+09:00,1.4,��,2.2,��,26,91.3,0,0,0,0,0,0,988.8,1002
2023-08-07T04:03:00+09:00,1.5,��,2.2,��,25.8,90.9,0,0,0,0,0,0,988.8,1002
2023-08-07T04:04:00+09:00,1.6,��,2.3,���쐼,25.7,91,0,0,0,0,0,0,988.8,1002
2023-08-07T04:05:00+09:00,1.7,��,2.3,���쐼,25.6,91.1,0,0,0,0,0,0,988.8,1002
2023-08-07T04:06:00+09:00,1.7,��,2.3,���쐼,25.6,91.5,0,0,0,0,0,0,988.8,1002
2023-08-07T04:07:00+09:00,1.8,��,2.9,��,25.6,91.8,0,0,0,0,0,0,988.8,1002
2023-08-07T04:08:00+09:00,1.8,��,2.9,��,25.5,91.7,0,0,0,0,0,0,988.8,1002
2023-08-07T04:09:00+09:00,1.9,��,3.3,��,25.4,91.9,0,0,0,0,0,0,988.8,1002
2023-08-07T04:10:00+09:00,2,��,3.3,��,25.4,92.3,0,0,0,0,0,0,988.8,1002
2023-08-07T04:11:00+09:00,2.1,��,3.4,��,25.3,92.8,0,0,0,0,0,0,988.8,1002
2023-08-07T04:12:00+09:00,2.2,��,3.4,��,25.4,93.1,0,0,0,0,0,0,988.9,1002.1
2023-08-07T04:13:00+09:00,2.3,��,3.4,��,25.4,93.4,0,0,0,0,0,0,988.9,1002.1
2023-08-07T04:14:00+09:00,2.3,��,3.4,��,25.4,93.5,0,0,0,0,0,0,988.9,1002.1
2023-08-07T04:15:00+09:00,2.3,��,3.4,��,25.3,93.5,0,0,0,0,0,0,988.9,1002.1
2023-08-07T04:16:00+09:00,2.3,��,3.4,��,25.5,94,0,0,0,0,0,0,988.9,1002.1
2023-08-07T04:17:00+09:00,2.2,��,3.4,��,25.4,94.1,0,0,0,0,0,0,988.9,1002.1
2023-08-07T04:18:00+09:00,2.1,��,3.4,��,25.9,94.9,0,0,0,0,0,0,988.9,1002.1
2023-08-07T04:19:00+09:00,2.1,��,3.4,��,25.8,94.3,0,0,0,0,0,0,988.9,1002.1
2023-08-07T04:20:00+09:00,1.9,��,3.4,��,25.7,93.2,0,0,0,0,0,0,988.9,1002.1
2023-08-07T04:21:00+09:00,1.7,��,3.4,���쐼,25.8,93,0,0,0,0,0,0,988.9,1002.1
2023-08-07T04:22:00+09:00,1.6,��,2.8,��,26.1,93.1,0,0,0,0,0,0,988.9,1002.1
2023-08-07T04:23:00+09:00,1.5,��,2.8,��,26.4,93,0,0,0,0,0,0,988.9,1002
2023-08-07T04:24:00+09:00,1.3,��,2.3,���쐼,26.4,91.9,0,0,0,0,0,0,988.9,1002
2023-08-07T04:25:00+09:00,1.2,��,2.3,���쐼,26.3,90.8,0,0,0,0,0,0,988.9,1002
2023-08-07T04:26:00+09:00,1,��,2.3,���쐼,26.2,90,0,0,0,0,0,0,988.9,1002.1
2023-08-07T04:27:00+09:00,1,��,2.3,���쐼,26.3,89.7,0,0,0,0,0,0,988.9,1002
2023-08-07T04:28:00+09:00,0.9,��,2.3,���쐼,26.3,89.6,0,0,0,0,0,0,989,1002.1
2023-08-07T04:29:00+09:00,0.8,��,2.1,��,26.2,89.5,0,0,0,0,0,0,989,1002.2
2023-08-07T04:30:00+09:00,0.7,��,2.1,��,26.4,89.6,0,0,0,0,0,0,989,1002.1
2023-08-07T04:31:00+09:00,0.6,��,2.1,��,26.3,89.3,0,0,0,0,0,0,989.1,1002.3
2023-08-07T04:32:00+09:00,0.5,��,1.6,��,26.3,89,0,0,0,0,0,0,989.1,1002.3
2023-08-07T04:33:00+09:00,0.5,���쐼,1.7,���쐼,26,88.6,0,0,0,0,0,0,989.1,1002.3
2023-08-07T04:34:00+09:00,0.6,���쐼,1.7,���쐼,25.6,88.1,0,0,0,0,0,0,989.1,1002.3
2023-08-07T04:35:00+09:00,0.7,���쐼,1.7,���쐼,25.5,88.6,0,0,0,0,0,0,989.1,1002.3
2023-08-07T04:36:00+09:00,0.7,���쐼,2,�쐼,25.4,89.7,0,0,0,0,0,0,989.1,1002.3
2023-08-07T04:37:00+09:00,0.7,���쐼,2,�쐼,25.7,90.9,0,0,0,0,0,0,989.1,1002.3
2023-08-07T04:38:00+09:00,0.8,�쐼,2,�쐼,25.8,91.7,0,0,0,0,0,0,989.1,1002.3
2023-08-07T04:39:00+09:00,0.8,�쐼,2,�쐼,25.8,92.2,0,0,0,0,0,0,989.1,1002.3
2023-08-07T04:40:00+09:00,0.9,�쐼,2,�쐼,25.7,91.2,0,0,0,0,0,0,989.1,1002.3
2023-08-07T04:41:00+09:00,0.9,�쐼,2,�쐼,26,92,0,0,0,0,0,0,989.1,1002.3
2023-08-07T04:42:00+09:00,1,�쐼,2,�쐼,26.1,91.8,0,0,0,0,0,0,989.1,1002.3
2023-08-07T04:43:00+09:00,0.9,�쐼,2,�쐼,26.2,91.8,0,0,0,0,0,0,989.1,1002.3
2023-08-07T04:44:00+09:00,0.8,�쐼,2,�쐼,26,90.9,0,0,0,0,0,0,989.1,1002.3
2023-08-07T04:45:00+09:00,0.7,�쐼,2,�쐼,26,90.4,0,0,0,0,0,0,989.1,1002.3
2023-08-07T04:46:00+09:00,0.7,�쐼,1.6,�쐼,26.1,90.8,0,0,0,0,0,0,989,1002.2
2023-08-07T04:47:00+09:00,0.7,�쐼,1.6,�쐼,26.4,91,0,0,0,0,0,0,989,1002.1
2023-08-07T04:48:00+09:00,0.6,�쐼,1.6,�쐼,26.1,90.2,0,0,0,0,0,0,989,1002.2
2023-08-07T04:49:00+09:00,0.6,�쐼,1.4,��,26,89.9,0,0,0,0,0,0,989,1002.2
2023-08-07T04:50:00+09:00,0.6,�쐼,1.4,��,25.9,89.8,0,0,0,0,0,0,989,1002.2
2023-08-07T04:51:00+09:00,0.6,�쐼,1.4,��,25.8,90,0,0,0,0,0,0,989.1,1002.3
2023-08-07T04:52:00+09:00,0.6,�쐼,1.4,��,25.6,89.9,0,0,0,0,0,0,989.1,1002.3
2023-08-07T04:53:00+09:00,0.6,�쐼,1.4,��,25.7,90.2,0,0,0,0,0,0,989.1,1002.3
2023-08-07T04:54:00+09:00,0.6,�쐼,1.4,��,25.5,90.7,0,0,0,0,0,0,989.1,1002.3
2023-08-07T04:55:00+09:00,0.5,�쐼,1.4,��,25.7,91.4,0,0,0,0,0,0,989.1,1002.3
2023-08-07T04:56:00+09:00,0.5,�쐼,1.2,�쐼,25.9,92,0,0,0,0,0,0,989.1,1002.3
2023-08-07T04:57:00+09:00,0.5,�쐼,1.2,�쐼,26.3,92.5,0,0,0,0,0,0,989.1,1002.3
2023-08-07T04:58:00+09:00,0.5,�쐼,1.2,�쐼,26.2,91.9,0,0,0,0,0,0,989.1,1002.3
2023-08-07T04:59:00+09:00,0.4,���쐼,1.2,�쐼,26.2,90.9,0,0,0,0,0,0,989.1,1002.3
2023-08-07T05:00:00+09:00,0.4,���쐼,1.2,�쐼,26.3,90.7,0,0,0,0,0,0,989.1,1002.3
2023-08-07T05:01:00+09:00,0.3,���쐼,1.2,�쐼,26.4,90.5,0,0,0,0,0,0,989.1,1002.2
2023-08-07T05:02:00+09:00,0.3,��,1,���쐼,26.5,90.2,0,0,0,0,0,0,989.1,1002.2
2023-08-07T05:03:00+09:00,0.3,��,1,���쐼,26.4,89.6,0,0,0,0,0,0,989.1,1002.2
2023-08-07T05:04:00+09:00,0.3,��,1.1,���k��,26.5,89.3,0,0,0,0,0,0,989.1,1002.2
2023-08-07T05:05:00+09:00,0.4,��,1.1,���k��,26.4,88.9,0,0,0,0,0,0,989.1,1002.2
2023-08-07T05:06:00+09:00,0.4,��,1.1,���k��,26.3,88.2,0,0,0,0,0,0,989.2,1002.4
2023-08-07T05:07:00+09:00,0.3,���k��,1.1,���k��,26.4,88.3,0,0,0,0,0,0,989.2,1002.3
2023-08-07T05:08:00+09:00,0.4,���k��,1.1,���k��,26.3,88.4,0,0,0,0,0,0,989.3,1002.5
2023-08-07T05:09:00+09:00,0.4,���k��,1.1,���k��,26.3,88.4,0,0,0,0,0,0,989.3,1002.5
2023-08-07T05:10:00+09:00,0.4,���k��,1.1,���k��,26.3,88.8,0,0,0,0,0,0,989.3,1002.5
2023-08-07T05:11:00+09:00,0.4,���k��,1.1,���k��,26.4,89,0,0,0,0,0,0,989.3,1002.4
2023-08-07T05:12:00+09:00,0.4,�k��,1.1,���k��,26.4,89.1,0,0,0,0,0,0,989.3,1002.4
2023-08-07T05:13:00+09:00,0.3,�k��,1.1,���k��,26.3,88.9,0,0,0,0,0,0,989.3,1002.5